Abbotsford, British Columbia

9:01 PM PDT on May 28, 2017 (GMT -0700)
Abbotsford

Weather History for CYXX - October, 2011

Change the Weather History Date:

Saturday, October 22, 2011

  Actual Average Record
Temperature  
Mean Temperature 52 °F -  
Max Temperature 55 °F 51 °F 69 °F (1998)
Min Temperature 49 °F 37 °F 37 °F (2006)
Degree Days  
Heating Degree Days 13    
Growing Degree Days 2 (Base 50)    
Moisture  
Dew Point 50 °F    
Average Humidity 91    
Maximum Humidity 100    
Minimum Humidity 82    
Precipitation  
Precipitation 0.28 in 0.27 in - ()
Sea Level Pressure  
Sea Level Pressure 30.15 in    
Wind  
Wind Speed 3 mph ()    
Max Wind Speed 13 mph    
Max Gust Speed -    
Visibility 11.4 miles    
Events Rain    
Averages and records for this station are not official NWS values.
T = Trace of Precipitation, MM = Missing Value Source: Averaged Metar Reports

Daily Weather History Graph

Daily Weather History Graph

Search for Another Location

Airport or City:

Trip Planner

Search our weather history database for the weather conditions in past years. The results will help you decide how hot, cold, wet, or windy it might be!

Date:

Astronomy

Oct. 22, 2011 Rise Set
Actual Time 7:40 AM PDT 6:06 PM PDT
Civil Twilight 7:08 AM PDT 6:38 PM PDT
Nautical Twilight 6:31 AM PDT 7:15 PM PDT
Astronomical Twilight 5:54 AM PDT 7:52 PM PDT
Moon 2:20 AM PDT (10/22) 3:47 PM PDT (10/22)
Length of Visible Light 11h 30m
Length of Day
10h 25m
Waning Crescent, 22% of the Moon is Illuminated
Oct 22
Waning Crescent
Oct 26
New
Nov 2
First Quarter
Nov 10
Full
Nov 18
Last Quarter

Hourly Weather History & Observations

Time (PDT) Temp. Dew Point Humidity Pressure Visibility Wind Dir Wind Speed Gust Speed Precip Events Conditions
12:00 AM 51.8 °F 48.2 °F 88% 30.21 in 10.0 mi Calm Calm - N/A   Overcast
1:00 AM 51.8 °F 50.0 °F 94% 30.21 in 10.0 mi Calm Calm - N/A   Overcast
1:37 AM - - N/A% - 10.0 mi Calm Calm - N/A Rain Light Rain
2:00 AM 51.8 °F 50.0 °F 94% 30.21 in 10.0 mi Calm Calm - N/A   Overcast
3:00 AM 51.8 °F 50.0 °F 94% 30.21 in 10.0 mi Calm Calm - N/A   Overcast
4:00 AM 51.8 °F 50.0 °F 94% 30.19 in 10.0 mi NNE 4.6 mph - N/A Rain Light Rain
5:00 AM 51 °F 49 °F 91% 30.17 in 10 mi NNE 4.6 mph - - Rain Light Rain
5:00 AM 51.8 °F 50.0 °F 94% 30.17 in 10.0 mi NNE 4.6 mph - N/A   Overcast
5:14 AM - - N/A% - 10.0 mi NNE 4.6 mph - N/A   Overcast
5:40 AM - - N/A% - 10.0 mi North 3.5 mph - N/A Rain Light Rain
6:00 AM 51.8 °F 50.0 °F 94% 30.16 in 10.0 mi Calm Calm - N/A Rain Rain
7:00 AM 50.0 °F 50.0 °F 100% 30.14 in 8.0 mi NNE 3.5 mph - N/A Rain Rain
8:00 AM 50.0 °F 50.0 °F 100% 30.14 in 8.0 mi NE 4.6 mph - N/A Rain Rain
9:00 AM 50.0 °F 48.2 °F 94% 30.19 in 8.0 mi North 3.5 mph - N/A Rain Rain
9:30 AM - - N/A% - 20.0 mi East 12.7 mph - N/A   Mostly Cloudy
10:00 AM 51.8 °F 48.2 °F 88% 30.12 in 25.0 mi East 4.6 mph - N/A   Mostly Cloudy
11:00 AM 52 °F 50 °F 89% 30.15 in 25 mi North 9.2 mph - -   Partly Cloudy
11:00 AM 51.8 °F 50.0 °F 94% 30.15 in 25.0 mi North 8.1 mph - N/A   Overcast
12:00 PM 53.6 °F 50.0 °F 88% 30.13 in 25.0 mi NE 4.6 mph - N/A   Mostly Cloudy
1:00 PM 53.6 °F 48.2 °F 82% 30.12 in 25.0 mi North 3.5 mph - N/A   Overcast
1:18 PM - - N/A% - 10.0 mi North 2.3 mph - N/A Rain Rain Showers
1:27 PM - - N/A% - 10.0 mi NW 3.5 mph - N/A Rain Light Rain Showers
2:00 PM 53.6 °F 50.0 °F 88% 30.11 in 10.0 mi North 3.5 mph - N/A Rain Light Rain Showers
2:20 PM - - N/A% - 8.0 mi NW 3.5 mph - N/A Rain Heavy Rain Showers
2:33 PM - - N/A% - 10.0 mi NNW 3.5 mph - N/A Rain Light Rain Showers
3:00 PM 51.8 °F 50.0 °F 94% 30.13 in 10.0 mi NNE 2.3 mph - N/A   Overcast
3:15 PM - - N/A% - 8.0 mi Calm Calm - N/A Rain Light Rain Showers
3:45 PM - - N/A% - 20.0 mi East 3.5 mph - N/A   Overcast
4:00 PM 51.8 °F 50.0 °F 94% 30.12 in 15.0 mi ESE 2.3 mph - N/A   Overcast
5:00 PM 54 °F 51 °F 86% 30.11 in 19 mi SSE 3.5 mph - -   Partly Cloudy
5:00 PM 53.6 °F 51.8 °F 94% 30.11 in 20.0 mi SSE 2.3 mph - N/A   Mostly Cloudy
6:00 PM 53.6 °F 51.8 °F 94% 30.11 in 20.0 mi WNW 2.3 mph - N/A   Mostly Cloudy
7:00 PM 55.4 °F 51.8 °F 88% 30.11 in 10.0 mi SSW 6.9 mph - N/A   Mostly Cloudy
8:00 PM 53.6 °F 50.0 °F 88% 30.11 in 10.0 mi SSW 9.2 mph - N/A   Mostly Cloudy
9:00 PM 53.6 °F 50.0 °F 88% 30.13 in 10.0 mi WSW 4.6 mph - N/A   Mostly Cloudy
10:00 PM 53.6 °F 50.0 °F 88% 30.14 in 10.0 mi SW 3.5 mph - N/A   Mostly Cloudy
11:00 PM 51 °F 48 °F 87% 30.15 in 10 mi SW 4.6 mph - -   Mostly Cloudy